Tracking 23731 objects as of 26-Sep-2021
HD Live streaming from Space Station
objects crossing your sky now

STARLINK 1062

Track STARLINK 1062 now!
10-day predictions
STARLINK 1062 is classified as:


NORAD ID: 44767
Int'l Code: 2019-074BG
Perigee: 553.7 km
Apogee: 555.0 km
Inclination: 53.1 °
Period: 95.6 minutes
Semi major axis: 6925 km
RCS: Unknown
Launch date: November 11, 2019
Source: United States (US)
Launch site: AIR FORCE EASTERN TEST RANGE (AFETR)
aabbcc
Your satellite tracking list
Your tracking list is empty




NASA's NSSDC Master Catalog

Two Line Element Set (TLE):
1 44767U 19074BG  21268.43906023  .00001426  00000-0  11457-3 0  9999
2 44767  53.0548 327.1443 0000988 120.2061 239.9026 15.06403595103256
Source of the keplerian elements: AFSPC